Home   Weather   San Luis Obispo   Past weeks
Flag for USA

Past Weather in San Luis Obispo, California, USA — Yesterday and Last 2 Weeks

Now
55 °F

Clear.


Feels Like: 55 °F
Forecast: 76 / 54 °F
Wind: 3 mph from West

Location: San Luis Obispo County-Mc Chesney Field

Current Time: Oct 19, 2019 at 11:15:06 pm

Latest Report: Oct 19, 2019 at 9:56 pm


Visibility: 10 mi

Pressure: 29.98 "Hg

Humidity: 87%

Dew Point: 51 °F

Location of San Luis ObispoLocation

Past Weather in San Luis Obispo — Graph

°F

San Luis Obispo Temperature Yesterday

Maximum temperature yesterday: 78 °F (at 1:56 pm)
Minimum temperature yesterday: 53 °F (at 11:56 pm)
Average temperature yesterday: 61 °F

High & Low Weather Summary for the Past Weeks

 TemperatureHumidityPressure
High86 °F (Oct 5, 1:56 pm)100% (Oct 13, 11:08 pm)30.07 "Hg (Oct 13, 11:08 pm)
Low41 °F (Oct 12, 6:56 am)5% (Oct 11, 11:56 am)29.82 "Hg (Oct 12, 3:56 pm)
Average58 °F62%29.94 "Hg
* Reported Oct 4 9:56 pm — Oct 19 9:56 pm, San Luis Obispo. Weather by CustomWeather, © 2019

Note: Actual official high and low records may vary slightly from our data, if they occured in-between our weather recording intervals... More about our weather records

Advertising

San Luis Obispo Weather History for the Previous 24 Hours

Scroll right to see more
 ConditionsComfort  
Time TempWeatherWind HumidityBarometerVisibility
9:56 pm
Sat, Oct 19
55 °FClear.3 mph87%29.98 "Hg10 mi
8:56 pm56 °FClear.8 mph87%29.98 "Hg10 mi
7:56 pm57 °FClear.8 mph83%29.99 "Hg10 mi
6:56 pm58 °FClear.10 mph84%29.98 "Hg10 mi
5:56 pm60 °FSunny.18 mph75%29.98 "Hg10 mi
4:56 pm64 °FSunny.25 mph63%29.97 "Hg10 mi
3:56 pm70 °FSunny.25 mph37%29.96 "Hg10 mi
2:56 pm75 °FSunny.18 mph26%29.96 "Hg10 mi
1:56 pm73 °FSunny.18 mph32%29.99 "Hg10 mi
12:56 pm77 °FSunny.15 mph26%30.01 "Hg10 mi
11:56 am73 °FSunny.13 mph33%30.03 "Hg10 mi
10:56 am68 °FSunny.16 mph42%30.05 "Hg10 mi
9:56 am65 °FSunny.18 mph47%30.05 "Hg10 mi
8:56 am62 °FSunny.13 mph52%30.04 "Hg10 mi
7:56 am58 °FSunny.17 mph58%30.03 "Hg10 mi
6:56 am58 °FClear.15 mph58%30.01 "Hg10 mi
5:56 am58 °FClear.15 mph60%30.01 "Hg10 mi
4:56 am57 °FClear.14 mph62%29.99 "Hg10 mi
3:56 am56 °FClear.N/A65%30.00 "Hg10 mi
2:56 am58 °FClear.15 mph62%30.02 "Hg10 mi
1:56 am50 °FClear.No wind83%30.01 "Hg10 mi
12:56 am52 °FClear.3 mph83%30.02 "Hg10 mi
11:56 pm
Fri, Oct 18
53 °FClear.9 mph86%30.02 "Hg10 mi
Weather by CustomWeather, © 2019

See weather overview